Regional Weather Roundup
Issued by NWS

Home | Current Version | Previous Version | Text Only | Print | Product List | Glossary Off
Versions: 1 2 3 4 5 6 7 8 9 10 11 12 13 14 15 16 17 18 19 20 21 22 23 24 25 26 27 28 29 30 31 32 33 34 35 36 37 38 39 40 41 42 43 44 45 46 47 48 49 50

000
ASUS43 KLOT 250800
RWRIL

ILLINOIS REGIONAL WEATHER ROUNDUP
NATIONAL WEATHER SERVICE CHICAGO/ROMEOVILLE IL
300 AM CDT MON MAY 25 2015

NOTE: "FAIR" INDICATES FEW OR NO CLOUDS BELOW 12,000 FEET WITH NO
SIGNIFICANT WEATHER AND/OR OBSTRUCTIONS TO VISIBILITY.

* THESE STATIONS ARE NOT UNDER NWS QUALITY CONTROL. THEY ALSO MAY NOT
  REPORT WEATHER SUCH AS PRECIPITATION OR FOG.

ILZ001-002-007-009-015-016-024-250900-
NORTHWEST ILLINOIS

CITY           SKY/WX    TMP DP  RH WIND       PRES   REMARKS
MOLINE         NOT AVBL
STERLING*      CLOUDY    66  64  94 SE6       29.79F
$$

ILZ003-004-008-010-011-017-018-250900-
NORTH CENTRAL ILLINOIS

CITY           SKY/WX    TMP DP  RH WIND       PRES   REMARKS
ROCKFORD       LGT RAIN  67  65  93 SE6       29.83F
$$

ILZ005-006-012>014-019>023-250900-
NORTHEAST ILLINOIS

CITY           SKY/WX    TMP DP  RH WIND       PRES   REMARKS
CHICAGO-OHARE  CLOUDY    73  62  68 S21       29.84F
CHICAGO-MIDWAY CLOUDY    75  63  66 S18G25    29.85F
AURORA         LGT RAIN  70  63  78 S16       29.84F
WAUKEGAN       CLOUDY    70  63  78 S10       29.83F
DUPAGE AIRPORT LGT RAIN  70  62  76 S20G35    29.84F
WHEELING       CLOUDY    72  62  71 S15G23    29.85F
NORTHERLY ISL    N/A     74  61  63 S15         N/A
$$

LMZ740>746-250900-
SOUTHERN LAKE MICHIGAN

STATION/POSITION SKY/WX   TEMP    WIND        PRES    VSBY  WAVE
                          AIR SEA DIR/SP/G                  HT/PER
                          (F)     (DEG/KT/KT) (MB)    (MI)  (FT/S)
SOUTHERN BUOY              48 38  160/ 12/ 14 1011.6F         1/ 3
HARRISON CRIB              71     180/ 23/ 26   N/A
BURNHAM HARBOR             74     190/ 11/ 18   N/A
CALUMET HARBOR             74     170/ 11/ 16   N/A
BURNS HARBOR               74     180/ 12/ 20 1012.9F
MICHIGAN CITY              74     160/ 16/ 23   N/A
MICHIGAN CITY 6N           68 53  190/ 16/ 21   N/A           2/ 2
ST. JOSEPH                 67 54  200/ 14/ 19   N/A           2/ 3
$$

ILZ025>027-034>036-040-047-049-050-058-095>099-250900-
WEST-CENTRAL ILLINOIS

CITY           SKY/WX    TMP DP  RH WIND       PRES   REMARKS
QUINCY         LGT RAIN  67  65  93 SW9       29.79R
$$

ILZ028>032-037-038-041>044-048-051>054-059>061-250900-
CENTRAL ILLINOIS

CITY           SKY/WX    TMP DP  RH WIND       PRES   REMARKS
DECATUR        CLOUDY    69  64  84 S16G24    29.90S
PEORIA         CLOUDY    69  63  81 S20G28    29.82F
SPRINGFIELD    CLOUDY    69  68  96 S18       29.85F
TAYLORVILLE    NOT AVBL
$$

ILZ033-039-045-046-055>057-062-063-250900-
EAST-CENTRAL ILLINOIS

CITY           SKY/WX    TMP DP  RH WIND       PRES   REMARKS
CHAMPAIGN      CLOUDY    68  64  87 S13       29.92S
MATTOON        CLOUDY    68  65  90 S9        29.92F
$$

ILZ079-100>102-250900-
SOUTHWEST ILLINOIS

CITY           SKY/WX    TMP DP  RH WIND       PRES   REMARKS
BELLEVILLE     CLOUDY    68  68 100 S12       29.90S
CAHOKIA*       CLOUDY    70  65  84 S9        29.88S
$$

ILZ064>066-069>071-074>076-080>082-084>086-088>090-092>094-250900-
SOUTH-CENTRAL ILLINOIS

CITY           SKY/WX    TMP DP  RH WIND       PRES   REMARKS
CARBONDALE     LGT RAIN  69  66  90 S12       29.96S
MT. VERNON     CLOUDY    70  63  78 S12       29.96S
$$

ILZ067-068-072-073-078-083-087-091-250900-
SOUTHEAST ILLINOIS

CITY           SKY/WX    TMP DP  RH WIND       PRES   REMARKS
LAWRENCEVILLE  CLOUDY    73  64  73 S18G29    30.00R
$$

ABBREVIATIONS USED IN REMARKS
   TC - TEMPERATURE IN CELSIUS
  WCI - WIND CHILL INDEX
   HX - HEAT INDEX
  VSB - VISIBILITY
$$




USA.gov is the U.S. government's official web portal to all federal, state and local government web resources and services.